Regional Weather Roundup
Issued by NWS

Home | Current Version | Previous Version | Graphics & Text | Print | Product List | Glossary On
Versions: 1 2 3 4 5 6 7 8 9 10 11 12 13 14 15 16 17 18 19 20 21 22 23 24 25 26 27 28 29 30 31 32 33 34 35 36 37 38 39 40 41 42 43 44 45 46 47 48 49 50
676
ASUS43 KLOT 110308
RWRIL

ILLINOIS REGIONAL WEATHER ROUNDUP
NATIONAL WEATHER SERVICE CHICAGO/ROMEOVILLE IL
900 PM CST SUN DEC 10 2017

NOTE: "FAIR" INDICATES FEW OR NO CLOUDS BELOW 12,000 FEET WITH NO
SIGNIFICANT WEATHER AND/OR OBSTRUCTIONS TO VISIBILITY.

* THESE STATIONS ARE NOT UNDER NWS QUALITY CONTROL. THEY ALSO MAY NOT
  REPORT WEATHER SUCH AS PRECIPITATION OR FOG.

ILZ001-002-007-009-015-016-024-110400-
NORTHWEST ILLINOIS

CITY           SKY/WX    TMP DP  RH WIND       PRES   REMARKS
MOLINE         CLOUDY    23  18  81 CALM      30.10S
STERLING*      CLOUDY    26  21  81 CALM      30.10S
SAVANNA*       CLEAR     23  19  87 CALM      30.09F
$$

ILZ003-004-008-010-011-017-018-110400-
NORTH CENTRAL ILLINOIS

CITY           SKY/WX    TMP DP  RH WIND       PRES   REMARKS
ROCKFORD       PTCLDY    25  18  74 NW7       30.09S WCI  17
FREEPORT*      CLEAR     24  19  80 CALM      30.09S
ROCHELLE*      CLEAR     26  20  78 NW5       30.09R WCI  20
DE KALB*       CLEAR     24  18  80 NW3       30.07S
PERU*          CLOUDY    24  19  81 NW5       30.10S WCI  18
$$

ILZ005-006-012>014-019>023-110400-
NORTHEAST ILLINOIS

CITY           SKY/WX    TMP DP  RH WIND       PRES   REMARKS
CHICAGO-OHARE  CLOUDY    30  19  63 N7        30.07R WCI  23
CHICAGO-MIDWAY CLOUDY    31  20  63 N9        30.08R WCI  23
AURORA         CLEAR     23  18  81 CALM      30.08S
LANSING*       CLOUDY    29  22  73 N5        30.08S WCI  24
WAUKEGAN       CLOUDY    28  19  69 NW6       30.07R WCI  22
DUPAGE AIRPORT CLOUDY    27  20  75 NW5       30.07R WCI  22
KANKAKEE*      PTCLDY    26  19  74 W3        30.09S
WHEELING       CLOUDY    29  20  69 N7        30.09S WCI  22
MORRIS*        CLEAR     24  19  80 N3        30.08S
ROMEOVILLE*    CLOUDY    27  20  76 NW5       30.08R WCI  21
NORTHERLY ISL    N/A     29  19  66 N6          N/A  WCI  23
$$

LMZ740>746-110400-
SOUTHERN LAKE MICHIGAN

STATION/POSITION SKY/WX   TEMP    WIND        PRES    VSBY  WAVE
                          AIR SEA DIR/SP/G                  HT/PER
                          (F)     (DEG/KT/KT) (MB)    (MI)  (FT/S)
HARRISON CRIB              30     320/ 20/ 22   N/A
BURNHAM HARBOR             29     340/ 10/ 16   N/A
CALUMET HARBOR             29     310/ 10/ 16 1018.0R
BURNS HARBOR               32     320/ 12/ 21 1018.6R
MICHIGAN CITY              31     300/ 18/ 20   N/A
$$

ILZ025>027-034>036-040-047-049-050-058-095>099-110400-
WEST-CENTRAL ILLINOIS

CITY           SKY/WX    TMP DP  RH WIND       PRES   REMARKS
QUINCY         CLEAR     34  24  67 CALM      30.11S
GALESBURG*     CLOUDY    25  22  88 CALM      30.12S
MACOMB*        CLOUDY    24  19  80 CALM      30.13R
JACKSONVILLE*  CLEAR     31  22  70 N3        30.12R
PITTSFIELD*    CLEAR     28  22  77 SW3       30.13S
$$

ILZ028>032-037-038-041>044-048-051>054-059>061-110400-
CENTRAL ILLINOIS

CITY           SKY/WX    TMP DP  RH WIND       PRES   REMARKS
PONTIAC        CLEAR     26  21  81 NW3       30.11R
BLOOMINGTON    CLEAR     27  21  78 NW6       30.11R WCI  20
DECATUR        CLEAR     30  23  75 N3        30.11R
PEORIA         CLOUDY    27  21  78 CALM      30.13R
LACON*         CLOUDY    23  20  85 CALM      30.11R
LINCOLN*       CLOUDY    29  24  81 CALM      30.13R
SPRINGFIELD    CLEAR     34  24  67 NW5       30.13R WCI  30
TAYLORVILLE    CLEAR     28  22  77 W5        30.13R WCI  23
$$

ILZ033-039-045-046-055>057-062-063-110400-
EAST-CENTRAL ILLINOIS

CITY           SKY/WX    TMP DP  RH WIND       PRES   REMARKS
CHAMPAIGN      CLEAR     25  19  78 NW6       30.11R WCI  18
DANVILLE*      CLEAR     29  21  73 NW8       30.07R WCI  21
RANTOUL*       CLEAR     28  22  79 NW5       30.10R WCI  23
MATTOON        CLEAR     27  23  85 NW9       30.10R WCI  18
PARIS*         CLEAR     27  22  84 NW7       30.11R WCI  19
$$

ILZ079-100>102-110400-
SOUTHWEST ILLINOIS

CITY           SKY/WX    TMP DP  RH WIND       PRES   REMARKS
ALTON          CLEAR     28  23  80 CALM      30.14R
BELLEVILLE     CLEAR     33  22  63 NW3       30.12S
CAHOKIA*       CLEAR     38  24  57 W5        30.13S WCI  34
$$

ILZ064>066-069>071-074>076-080>082-084>086-088>090-092>094-110400-
SOUTH-CENTRAL ILLINOIS

CITY           SKY/WX    TMP DP  RH WIND       PRES   REMARKS
CARBONDALE     CLEAR     31  26  82 CALM      30.14S
CAIRO*         PTCLDY    40  32  74 W3        30.16R
EFFINGHAM*     CLEAR     31  25  76 W3        30.13R
MARION         PTCLDY    42  29  60 CALM      30.15R
MT. VERNON     CLEAR     27  24  89 CALM      30.13S
CENTRALIA*     CLEAR     35  27  74 CALM      30.12S
SALEM*         CLEAR     34  25  69 CALM      30.13R
METROPOLIS*    PTCLDY    42  32  67 W6        30.15R
$$

ILZ067-068-072-073-078-083-087-091-110400-
SOUTHEAST ILLINOIS

CITY           SKY/WX    TMP DP  RH WIND       PRES   REMARKS
LAWRENCEVILLE  CLEAR     36  24  62 W5        30.11R WCI  32
FLORA*         CLEAR     37  25  63 NW5       30.12S WCI  33
FAIRFIELD*     CLEAR     30  25  81 CALM      30.12S
HARRISBURG*    CLEAR     39  30  70 NW6       30.15R WCI  34
ROBINSON*      CLEAR     31  24  74 NW7       30.12R WCI  25
CARMI*         CLEAR     33  27  79 CALM      30.13S
$$

ABBREVIATIONS USED IN REMARKS
   TC - TEMPERATURE IN CELSIUS
  WCI - WIND CHILL INDEX
   HX - HEAT INDEX
  VSB - VISIBILITY
$$





USA.gov is the U.S. government's official web portal to all federal, state and local government web resources and services.